GLO1148 SBGR-SBCT

Flight info

Callsign GLO1148
Flight time 0h 53m
Altitude 26000
Route SOVSI UZ85 RAXIT
Aircraft B738/M-SDFGIKLORWXY/LB1

Departure

Time 2026-05-08 23:21
Airport São Paulo/Guarulhos–Governor André Franco Montoro International Airport (SBGR)

Arrival

Time 2026-05-09 00:15
Airport Curitiba-Afonso Pena International Airport (SBCT)
Time Latitude Longitude Altitude Speed Heading
2026-05-08 23:10 -23.42818 -46.48349 2467 ft 0 kts 85°
2026-05-08 23:12 -23.42818 -46.48354 2470 ft 2 kts 85°
2026-05-08 23:12 -23.42819 -46.48372 2467 ft 2 kts 90°
2026-05-08 23:12 -23.42818 -46.48390 2467 ft 2 kts 98°
2026-05-08 23:13 -23.42814 -46.48407 2467 ft 2 kts 116°
2026-05-08 23:13 -23.42804 -46.48421 2469 ft 2 kts 151°
2026-05-08 23:13 -23.42789 -46.48426 2467 ft 1 kts 176°
2026-05-08 23:13 -23.42785 -46.48427 2467 ft 0 kts 179°
2026-05-08 23:16 -23.42789 -46.48427 2467 ft 3 kts 179°
2026-05-08 23:16 -23.42835 -46.48427 2469 ft 9 kts 180°
2026-05-08 23:17 -23.42900 -46.48435 2467 ft 9 kts 201°
2026-05-08 23:17 -23.42963 -46.48450 2473 ft 9 kts 179°
2026-05-08 23:17 -23.43025 -46.48447 2468 ft 9 kts 181°
2026-05-08 23:17 -23.43085 -46.48434 2471 ft 9 kts 162°
2026-05-08 23:18 -23.43142 -46.48415 2467 ft 8 kts 163°
2026-05-08 23:18 -23.43197 -46.48397 2468 ft 8 kts 163°
2026-05-08 23:18 -23.43251 -46.48379 2469 ft 8 kts 165°
2026-05-08 23:18 -23.43303 -46.48365 2471 ft 8 kts 165°
2026-05-08 23:19 -23.43353 -46.48349 2469 ft 7 kts 162°
2026-05-08 23:19 -23.43402 -46.48332 2469 ft 7 kts 162°
2026-05-08 23:19 -23.43417 -46.48289 2468 ft 7 kts 78°
2026-05-08 23:19 -23.43413 -46.48274 2472 ft 0 kts 73°
2026-05-08 23:20 -23.43413 -46.48273 2474 ft 1 kts 73°
2026-05-08 23:20 -23.43380 -46.48156 2469 ft 45 kts 73°
2026-05-08 23:20 -23.43225 -46.47583 2471 ft 111 kts 73°
2026-05-08 23:21 -23.42951 -46.46571 2473 ft 165 kts 73°
2026-05-08 23:21 -23.42581 -46.45231 2684 ft 195 kts 74°
2026-05-08 23:21 -23.42227 -46.43852 3656 ft 185 kts 69°
2026-05-08 23:21 -23.41834 -46.42508 4392 ft 190 kts 66°
2026-05-08 23:22 -23.41390 -46.41039 4689 ft 218 kts 66°
2026-05-08 23:22 -23.40891 -46.39379 4890 ft 243 kts 67°
2026-05-08 23:22 -23.40336 -46.37526 5094 ft 269 kts 69°
2026-05-08 23:22 -23.40160 -46.35432 5589 ft 291 kts 99°
2026-05-08 23:23 -23.40812 -46.33370 6487 ft 293 kts 108°
2026-05-08 23:23 -23.41542 -46.31269 7184 ft 300 kts 107°
2026-05-08 23:23 -23.42270 -46.29113 7906 ft 305 kts 107°
2026-05-08 23:23 -23.43239 -46.27040 8564 ft 310 kts 128°
2026-05-08 23:24 -23.44951 -46.25599 8998 ft 314 kts 159°
2026-05-08 23:24 -23.47070 -46.25139 9693 ft 313 kts 184°
2026-05-08 23:24 -23.48505 -46.25311 10125 ft 314 kts 194°
2026-05-08 23:24 -23.50701 -46.25781 10487 ft 334 kts 195°
2026-05-08 23:25 -23.53038 -46.26403 10662 ft 354 kts 205°
2026-05-08 23:25 -23.55071 -46.27882 11141 ft 352 kts 232°
2026-05-08 23:25 -23.56393 -46.30089 11832 ft 346 kts 252°
2026-05-08 23:25 -23.57187 -46.33424 12789 ft 344 kts 262°
2026-05-08 23:26 -23.57515 -46.35162 13246 ft 347 kts 262°
2026-05-08 23:26 -23.57986 -46.37715 13899 ft 351 kts 262°
2026-05-08 23:26 -23.58478 -46.40339 14463 ft 355 kts 262°
2026-05-08 23:26 -23.58986 -46.42985 15063 ft 358 kts 262°
2026-05-08 23:27 -23.59509 -46.45653 15654 ft 361 kts 261°
2026-05-08 23:27 -23.60041 -46.48344 16253 ft 365 kts 261°
2026-05-08 23:27 -23.60579 -46.51064 16820 ft 368 kts 261°
2026-05-08 23:27 -23.61085 -46.53809 17391 ft 371 kts 264°
2026-05-08 23:28 -23.61487 -46.56601 17929 ft 374 kts 265°
2026-05-08 23:28 -23.61872 -46.59403 18559 ft 373 kts 265°
2026-05-08 23:28 -23.62271 -46.62211 19107 ft 374 kts 265°
2026-05-08 23:28 -23.62746 -46.65014 19600 ft 380 kts 257°
2026-05-08 23:29 -23.63897 -46.67652 20082 ft 390 kts 242°
2026-05-08 23:29 -23.65379 -46.70139 20605 ft 392 kts 241°
2026-05-08 23:29 -23.66883 -46.72635 21097 ft 394 kts 242°
2026-05-08 23:29 -23.68356 -46.75121 21606 ft 395 kts 242°
2026-05-08 23:30 -23.69824 -46.77637 22263 ft 392 kts 243°
2026-05-08 23:30 -23.71277 -46.80137 22994 ft 388 kts 243°
2026-05-08 23:30 -23.72727 -46.82611 23674 ft 385 kts 243°
2026-05-08 23:30 -23.74171 -46.85062 24210 ft 383 kts 243°
2026-05-08 23:31 -23.75613 -46.87505 24755 ft 381 kts 243°
2026-05-08 23:31 -23.77045 -46.89932 25285 ft 379 kts 243°
2026-05-08 23:31 -23.78470 -46.92350 25833 ft 377 kts 243°
2026-05-08 23:31 -23.79891 -46.94764 25927 ft 375 kts 243°
2026-05-08 23:32 -23.81299 -46.97159 25974 ft 375 kts 243°
2026-05-08 23:32 -23.82695 -46.99539 25964 ft 377 kts 243°
2026-05-08 23:32 -23.84109 -47.01949 25975 ft 376 kts 243°
2026-05-08 23:32 -23.85520 -47.04356 25965 ft 376 kts 243°
2026-05-08 23:33 -23.86924 -47.06752 25965 ft 375 kts 243°
2026-05-08 23:33 -23.88333 -47.09154 25965 ft 374 kts 243°
2026-05-08 23:33 -23.89734 -47.11547 25961 ft 374 kts 243°
2026-05-08 23:33 -23.91133 -47.13937 25968 ft 373 kts 243°
2026-05-08 23:34 -23.92534 -47.16330 25970 ft 373 kts 243°
2026-05-08 23:34 -23.93933 -47.18721 25980 ft 373 kts 243°
2026-05-08 23:34 -23.95334 -47.21117 25964 ft 374 kts 243°
2026-05-08 23:34 -23.96735 -47.23514 25948 ft 374 kts 244°
2026-05-08 23:35 -23.98136 -47.25913 25947 ft 374 kts 243°
2026-05-08 23:35 -23.99537 -47.28312 25948 ft 373 kts 243°
2026-05-08 23:35 -24.00933 -47.30705 25939 ft 373 kts 243°
2026-05-08 23:35 -24.02308 -47.33064 25942 ft 373 kts 243°
2026-05-08 23:36 -24.03704 -47.35459 25949 ft 373 kts 243°
2026-05-08 23:36 -24.05102 -47.37858 25948 ft 374 kts 243°
2026-05-08 23:36 -24.06503 -47.40263 25948 ft 374 kts 243°
2026-05-08 23:36 -24.07903 -47.42666 25942 ft 374 kts 243°
2026-05-08 23:37 -24.09299 -47.45064 25947 ft 373 kts 243°
2026-05-08 23:37 -24.10890 -47.47336 25920 ft 382 kts 229°
2026-05-08 23:37 -24.13031 -47.49111 25943 ft 389 kts 220°
2026-05-08 23:37 -24.15319 -47.50702 25922 ft 390 kts 218°
2026-05-08 23:38 -24.17630 -47.52253 25930 ft 390 kts 218°
2026-05-08 23:38 -24.19942 -47.53805 25924 ft 390 kts 218°
2026-05-08 23:38 -24.22251 -47.55373 25916 ft 390 kts 219°
2026-05-08 23:38 -24.24550 -47.56953 25912 ft 390 kts 219°
2026-05-08 23:39 -24.26852 -47.58546 25907 ft 390 kts 219°
2026-05-08 23:39 -24.29116 -47.60118 25916 ft 390 kts 219°
2026-05-08 23:39 -24.31435 -47.61734 25909 ft 390 kts 219°
2026-05-08 23:39 -24.33702 -47.63314 25906 ft 390 kts 219°
2026-05-08 23:40 -24.35991 -47.64911 25906 ft 390 kts 219°
2026-05-08 23:40 -24.38290 -47.66510 25902 ft 391 kts 219°
2026-05-08 23:40 -24.40581 -47.68109 25899 ft 391 kts 219°
2026-05-08 23:40 -24.42828 -47.69767 25892 ft 386 kts 225°
2026-05-08 23:41 -24.44832 -47.71675 25903 ft 382 kts 229°
2026-05-08 23:41 -24.46772 -47.73689 25886 ft 381 kts 230°
2026-05-08 23:41 -24.48682 -47.75711 25898 ft 381 kts 230°
2026-05-08 23:41 -24.50593 -47.77728 25893 ft 381 kts 230°
2026-05-08 23:42 -24.52516 -47.79737 25894 ft 381 kts 229°
2026-05-08 23:42 -24.54446 -47.81736 25896 ft 382 kts 229°
2026-05-08 23:42 -24.56385 -47.83730 25896 ft 382 kts 229°
2026-05-08 23:42 -24.58306 -47.85698 25898 ft 382 kts 229°
2026-05-08 23:43 -24.60253 -47.87690 25903 ft 383 kts 229°
2026-05-08 23:43 -24.62209 -47.89689 25910 ft 383 kts 229°
2026-05-08 23:43 -24.64159 -47.91681 25898 ft 380 kts 229°
2026-05-08 23:43 -24.66071 -47.93630 25883 ft 368 kts 229°
2026-05-08 23:44 -24.67931 -47.95530 25635 ft 363 kts 229°
2026-05-08 23:44 -24.69768 -47.97408 25383 ft 359 kts 229°
2026-05-08 23:44 -24.71586 -47.99271 25040 ft 356 kts 229°
2026-05-08 23:44 -24.73401 -48.01131 24701 ft 354 kts 229°
2026-05-08 23:45 -24.75203 -48.02980 24353 ft 354 kts 230°
2026-05-08 23:45 -24.76985 -48.04809 23995 ft 353 kts 230°
2026-05-08 23:45 -24.78781 -48.06653 23624 ft 353 kts 230°
2026-05-08 23:45 -24.80576 -48.08496 23233 ft 352 kts 230°
2026-05-08 23:46 -24.82365 -48.10333 22828 ft 351 kts 230°
2026-05-08 23:46 -24.84152 -48.12167 22483 ft 350 kts 229°
2026-05-08 23:46 -24.85935 -48.13990 22109 ft 351 kts 229°
2026-05-08 23:46 -24.87711 -48.15821 21754 ft 349 kts 230°
2026-05-08 23:47 -24.89483 -48.17647 21389 ft 347 kts 230°
2026-05-08 23:47 -24.91244 -48.19459 21036 ft 345 kts 230°
2026-05-08 23:47 -24.92989 -48.21258 20682 ft 341 kts 230°
2026-05-08 23:47 -24.94712 -48.23033 20383 ft 338 kts 230°
2026-05-08 23:48 -24.96431 -48.24801 20012 ft 338 kts 230°
2026-05-08 23:48 -24.98123 -48.26544 19680 ft 336 kts 230°
2026-05-08 23:48 -24.99865 -48.28342 19192 ft 340 kts 230°
2026-05-08 23:48 -25.01568 -48.30100 18823 ft 340 kts 230°
2026-05-08 23:49 -25.03292 -48.31879 18469 ft 339 kts 230°
2026-05-08 23:49 -25.05016 -48.33658 18108 ft 338 kts 230°
2026-05-08 23:49 -25.06731 -48.35430 17737 ft 337 kts 230°
2026-05-08 23:49 -25.08437 -48.37192 17389 ft 335 kts 230°
2026-05-08 23:50 -25.10132 -48.38944 17040 ft 334 kts 230°
2026-05-08 23:50 -25.11821 -48.40692 16673 ft 331 kts 230°
2026-05-08 23:50 -25.13467 -48.42449 16372 ft 327 kts 233°
2026-05-08 23:50 -25.15020 -48.44274 16025 ft 325 kts 235°
2026-05-08 23:51 -25.16544 -48.46117 15699 ft 324 kts 235°
2026-05-08 23:51 -25.18064 -48.47954 15327 ft 323 kts 235°
2026-05-08 23:51 -25.19559 -48.49748 15022 ft 321 kts 234°
2026-05-08 23:51 -25.21073 -48.51553 14691 ft 319 kts 235°
2026-05-08 23:52 -25.22578 -48.53342 14364 ft 318 kts 235°
2026-05-08 23:52 -25.24079 -48.55128 14042 ft 316 kts 235°
2026-05-08 23:52 -25.25576 -48.56908 13684 ft 317 kts 235°
2026-05-08 23:52 -25.27080 -48.58698 13312 ft 317 kts 235°
2026-05-08 23:53 -25.28578 -48.60481 12963 ft 316 kts 235°
2026-05-08 23:53 -25.30069 -48.62256 12579 ft 313 kts 235°
2026-05-08 23:53 -25.31533 -48.63999 12331 ft 307 kts 236°
2026-05-08 23:53 -25.32973 -48.65716 12017 ft 303 kts 236°
2026-05-08 23:54 -25.34400 -48.67424 11672 ft 303 kts 234°
2026-05-08 23:54 -25.35857 -48.69093 11421 ft 300 kts 236°
2026-05-08 23:54 -25.37268 -48.70786 11117 ft 298 kts 236°
2026-05-08 23:55 -25.40062 -48.74171 10486 ft 297 kts 236°
2026-05-08 23:55 -25.41463 -48.75852 10193 ft 296 kts 236°
2026-05-08 23:55 -25.42853 -48.77511 10027 ft 290 kts 236°
2026-05-08 23:55 -25.44198 -48.79114 9834 ft 286 kts 236°
2026-05-08 23:56 -25.45548 -48.80726 9541 ft 285 kts 237°
2026-05-08 23:56 -25.46886 -48.82334 9243 ft 284 kts 236°
2026-05-08 23:56 -25.48220 -48.83933 8958 ft 283 kts 236°
2026-05-08 23:56 -25.49555 -48.85533 8666 ft 281 kts 237°
2026-05-08 23:57 -25.50877 -48.87115 8406 ft 279 kts 237°
2026-05-08 23:57 -25.52195 -48.88693 8149 ft 278 kts 237°
2026-05-08 23:57 -25.53506 -48.90267 7847 ft 278 kts 238°
2026-05-08 23:57 -25.54818 -48.91840 7560 ft 278 kts 238°
2026-05-08 23:58 -25.56125 -48.93415 7301 ft 277 kts 238°
2026-05-08 23:58 -25.57422 -48.94966 7170 ft 268 kts 238°
2026-05-08 23:58 -25.58664 -48.96416 7054 ft 251 kts 236°
2026-05-08 23:58 -25.59866 -48.97700 6930 ft 234 kts 236°
2026-05-08 23:59 -25.61014 -48.98914 6638 ft 223 kts 236°
2026-05-08 23:59 -25.62107 -49.00085 6368 ft 216 kts 238°
2026-05-08 23:59 -25.63181 -49.01239 6084 ft 213 kts 238°
2026-05-08 23:59 -25.64080 -49.02430 5782 ft 186 kts 263°
2026-05-09 00:00 -25.64123 -49.03647 5693 ft 149 kts 304°
2026-05-09 00:00 -25.63578 -49.04623 5570 ft 153 kts 300°
2026-05-09 00:00 -25.63090 -49.05658 5441 ft 149 kts 309°
2026-05-09 00:00 -25.62496 -49.06541 5314 ft 136 kts 310°
2026-05-09 00:01 -25.61900 -49.07330 5298 ft 129 kts 314°
2026-05-09 00:01 -25.61278 -49.08071 5159 ft 126 kts 314°
2026-05-09 00:01 -25.60693 -49.08744 5020 ft 115 kts 315°
2026-05-09 00:01 -25.60149 -49.09363 4887 ft 116 kts 315°
2026-05-09 00:02 -25.59593 -49.09990 4712 ft 113 kts 316°
2026-05-09 00:02 -25.59042 -49.10607 4593 ft 113 kts 316°
2026-05-09 00:02 -25.58474 -49.11241 4393 ft 126 kts 314°
2026-05-09 00:02 -25.57840 -49.11968 4220 ft 134 kts 316°
2026-05-09 00:03 -25.57184 -49.12699 4054 ft 135 kts 314°
2026-05-09 00:03 -25.56531 -49.13435 3881 ft 131 kts 315°
2026-05-09 00:03 -25.55882 -49.14165 3710 ft 137 kts 315°
2026-05-09 00:03 -25.55198 -49.14936 3495 ft 146 kts 314°
2026-05-09 00:04 -25.54485 -49.15739 3281 ft 146 kts 315°
2026-05-09 00:04 -25.53766 -49.16557 3117 ft 149 kts 317°
2026-05-09 00:04 -25.52960 -49.17427 3423 ft 179 kts 316°
2026-05-09 00:04 -25.52013 -49.18470 3944 ft 200 kts 316°
2026-05-09 00:05 -25.51212 -49.19679 4894 ft 192 kts 290°
2026-05-09 00:05 -25.51226 -49.21207 5580 ft 210 kts 270°
2026-05-09 00:05 -25.51684 -49.22802 5952 ft 227 kts 254°
2026-05-09 00:05 -25.52659 -49.24236 5935 ft 242 kts 234°
2026-05-09 00:06 -25.54213 -49.25255 6044 ft 286 kts 207°
2026-05-09 00:06 -25.56261 -49.25491 6019 ft 306 kts 178°
2026-05-09 00:06 -25.58286 -49.24806 6009 ft 302 kts 154°
2026-05-09 00:06 -25.59945 -49.23468 6038 ft 290 kts 140°
2026-05-09 00:07 -25.61444 -49.22017 6009 ft 284 kts 138°
2026-05-09 00:07 -25.62915 -49.20573 6030 ft 282 kts 139°
2026-05-09 00:07 -25.64392 -49.19133 6028 ft 283 kts 139°
2026-05-09 00:07 -25.65879 -49.17697 6024 ft 284 kts 139°
2026-05-09 00:08 -25.67375 -49.16257 6008 ft 286 kts 139°
2026-05-09 00:08 -25.68910 -49.14774 6034 ft 297 kts 136°
2026-05-09 00:08 -25.70119 -49.12991 5984 ft 287 kts 108°
2026-05-09 00:08 -25.70513 -49.10944 5994 ft 260 kts 76°
2026-05-09 00:09 -25.70091 -49.09105 5956 ft 239 kts 51°
2026-05-09 00:09 -25.69180 -49.07635 5827 ft 226 kts 36°
2026-05-09 00:09 -25.68090 -49.06447 5672 ft 213 kts 31°
2026-05-09 00:09 -25.67060 -49.05348 5544 ft 197 kts 29°
2026-05-09 00:10 -25.65994 -49.04719 5519 ft 160 kts 358°
2026-05-09 00:10 -25.64924 -49.04749 5533 ft 151 kts 340°
2026-05-09 00:10 -25.63997 -49.05183 5543 ft 139 kts 322°
2026-05-09 00:10 -25.63300 -49.05883 5552 ft 134 kts 317°
2026-05-09 00:11 -25.62632 -49.06594 5473 ft 133 kts 316°
2026-05-09 00:11 -25.61975 -49.07313 5326 ft 129 kts 316°
2026-05-09 00:11 -25.61560 -49.07775 5189 ft 127 kts 316°
2026-05-09 00:11 -25.60772 -49.08662 5035 ft 114 kts 315°
2026-05-09 00:12 -25.60398 -49.09084 4924 ft 118 kts 315°
2026-05-09 00:12 -25.59650 -49.09925 4728 ft 114 kts 315°
2026-05-09 00:12 -25.59274 -49.10348 4612 ft 115 kts 315°
2026-05-09 00:12 -25.58699 -49.10995 4471 ft 120 kts 316°
2026-05-09 00:13 -25.58098 -49.11683 4314 ft 128 kts 315°
2026-05-09 00:13 -25.57462 -49.12392 4137 ft 131 kts 316°
2026-05-09 00:13 -25.56825 -49.13106 3942 ft 131 kts 316°
2026-05-09 00:13 -25.56167 -49.13845 3780 ft 139 kts 314°
2026-05-09 00:14 -25.55471 -49.14629 3566 ft 146 kts 316°
2026-05-09 00:14 -25.54763 -49.15430 3372 ft 146 kts 314°
2026-05-09 00:14 -25.54081 -49.16225 3174 ft 140 kts 316°
2026-05-09 00:14 -25.53375 -49.16981 3003 ft 143 kts 315°
2026-05-09 00:15 -25.52793 -49.17637 2993 ft 75 kts 313°
2026-05-09 00:15 -25.52570 -49.17891 2994 ft 36 kts 315°
2026-05-09 00:15 -25.52524 -49.17978 2995 ft 5 kts 250°
2026-05-09 00:15 -25.52549 -49.18001 2995 ft 5 kts 199°
2026-05-09 00:16 -25.52582 -49.18003 2995 ft 5 kts 179°
2026-05-09 00:16 -25.52616 -49.18002 2995 ft 6 kts 178°
2026-05-09 00:16 -25.52678 -49.18000 2994 ft 11 kts 178°
2026-05-09 00:16 -25.52774 -49.17995 2993 ft 17 kts 178°
2026-05-09 00:17 -25.52880 -49.17968 2993 ft 14 kts 141°
2026-05-09 00:17 -25.52951 -49.17895 2994 ft 14 kts 137°
2026-05-09 00:17 -25.52978 -49.17800 2994 ft 13 kts 92°
2026-05-09 00:17 -25.52980 -49.17701 2994 ft 13 kts 91°
2026-05-09 00:18 -25.53013 -49.17616 2995 ft 12 kts 133°
2026-05-09 00:18 -25.53074 -49.17549 2995 ft 12 kts 134°
2026-05-09 00:18 -25.53132 -49.17484 2995 ft 12 kts 135°
2026-05-09 00:18 -25.53189 -49.17420 2995 ft 11 kts 134°
2026-05-09 00:19 -25.53244 -49.17358 2995 ft 11 kts 134°
2026-05-09 00:19 -25.53298 -49.17298 2995 ft 11 kts 134°
2026-05-09 00:19 -25.53356 -49.17249 2995 ft 11 kts 179°
2026-05-09 00:19 -25.53414 -49.17294 2995 ft 10 kts 223°
2026-05-09 00:20 -25.53452 -49.17335 2995 ft 3 kts 223°
2026-05-09 00:20 -25.53456 -49.17339 2995 ft 0 kts 222°